• In France
  • List of Countries
  • For 7 days
  • Water Temperature
  • Satellite Maps
  • Weather Map
  • Weather Widgets
  • user-avatar
    Login

    Hourly Weather Mitu

    Today, 14 December, Thursday

    Time Temperature Precipitation Wind Pressure Humidity
    00:00 +23°C° 0 mm 0 mps 738 mmHg 86%
    01:00 +23°C° 0 mm 0 mps 738 mmHg 87%
    02:00 +23°C° 0 mm 0 mps 738 mmHg 88%
    03:00 +22°C° 0 mm 0 mps 738 mmHg 89%
    04:00 +22°C° 0 mm 0 mps 738 mmHg 90%
    05:00 +25°C° 0 mm 1 mps 738 mmHg 88%
    06:00 +26°C° 0 mm 1 mps 738 mmHg 85%
    07:00 +27°C° 0 mm 1 mps 739 mmHg 80%
    08:00 +28°C° 0.3 mm 1 mps 739 mmHg 75%
    09:00 +30°C° 0.3 mm 1 mps 739 mmHg 69%
    10:00 +32°C° 0.3 mm 2 mps 739 mmHg 64%
    11:00 +32°C° 0.4 mm 1 mps 738 mmHg 63%
    12:00 +33°C° 0.4 mm 1 mps 738 mmHg 61%
    13:00 +33°C° 0.4 mm 1 mps 737 mmHg 59%
    14:00 +32°C° 0.4 mm 1 mps 737 mmHg 64%
    15:00 +32°C° 0.4 mm 1 mps 737 mmHg 69%
    16:00 +31°C° 0.4 mm 1 mps 736 mmHg 74%
    17:00 +29°C° 0.8 mm 1 mps 737 mmHg 81%
    18:00 +25°C° 0.8 mm 0 mps 737 mmHg 88%
    19:00 +23°C° 0.8 mm 0 mps 737 mmHg 96%
    20:00 +23°C° 0 mm 0 mps 738 mmHg 97%
    21:00 +23°C° 0 mm 0 mps 738 mmHg 97%
    22:00 +22°C° 0 mm 0 mps 739 mmHg 98%
    23:00 +22°C° 0.1 mm 0 mps 738 mmHg 98%

    Tomorrow, 15 December, Friday

    Time Temperature Precipitation Wind Pressure Humidity
    00:00 +22°C° 0.1 mm 0 mps 738 mmHg 98%
    01:00 +22°C° 0.1 mm 0 mps 738 mmHg 98%
    02:00 +22°C° 0 mm 0 mps 738 mmHg 98%
    03:00 +22°C° 0 mm 0 mps 738 mmHg 98%
    04:00 +21°C° 0 mm 0 mps 738 mmHg 98%
    05:00 +24°C° 0 mm 1 mps 738 mmHg 97%
    06:00 +25°C° 0 mm 1 mps 738 mmHg 96%
    07:00 +25°C° 0 mm 1 mps 739 mmHg 95%
    08:00 +27°C° 0.4 mm 1 mps 739 mmHg 88%
    09:00 +29°C° 0.4 mm 1 mps 739 mmHg 81%
    10:00 +30°C° 0.4 mm 2 mps 739 mmHg 75%
    11:00 +30°C° 0.9 mm 1 mps 738 mmHg 77%
    12:00 +30°C° 0.9 mm 1 mps 738 mmHg 79%
    13:00 +30°C° 0.9 mm 1 mps 737 mmHg 81%
    14:00 +30°C° 0.9 mm 1 mps 737 mmHg 82%
    15:00 +30°C° 0.9 mm 1 mps 736 mmHg 83%
    16:00 +30°C° 0.9 mm 1 mps 736 mmHg 84%
    17:00 +28°C° 0.9 mm 1 mps 736 mmHg 88%
    18:00 +27°C° 0.9 mm 1 mps 736 mmHg 93%
    19:00 +23°C° 0.9 mm 0 mps 737 mmHg 97%
    20:00 +23°C° 0.1 mm 0 mps 737 mmHg 97%
    21:00 +23°C° 0.1 mm 0 mps 737 mmHg 97%
    22:00 +22°C° 0.1 mm 0 mps 738 mmHg 97%
    23:00 +22°C° 0 mm 0 mps 738 mmHg 97%

    Day after tomorrow, 16 December, Saturday

    Time Temperature Precipitation Wind Pressure Humidity
    00:00 +22°C° 0 mm 0 mps 737 mmHg 97%
    01:00 +22°C° 0 mm 0 mps 737 mmHg 98%
    02:00 +22°C° 0.3 mm 0 mps 737 mmHg 98%
    03:00 +22°C° 0.3 mm 0 mps 737 mmHg 98%
    04:00 +21°C° 0.3 mm 0 mps 737 mmHg 98%
    05:00 +22°C° 0.1 mm 0 mps 737 mmHg 97%
    06:00 +22°C° 0.1 mm 0 mps 738 mmHg 97%
    07:00 +25°C° 0.1 mm 1 mps 738 mmHg 96%
    08:00 +27°C° 0 mm 1 mps 738 mmHg 84%
    09:00 +29°C° 0 mm 2 mps 739 mmHg 72%
    10:00 +32°C° 0 mm 2 mps 739 mmHg 59%
    11:00 +32°C° 0.2 mm 2 mps 738 mmHg 57%
    12:00 +34°C° 0.2 mm 2 mps 737 mmHg 55%
    13:00 +35°C° 0.2 mm 2 mps 736 mmHg 53%
    14:00 +35°C° 0.2 mm 2 mps 736 mmHg 55%
    15:00 +34°C° 0.2 mm 2 mps 735 mmHg 57%
    16:00 +33°C° 0.2 mm 1 mps 735 mmHg 59%
    17:00 +31°C° 0.1 mm 1 mps 735 mmHg 65%
    18:00 +29°C° 0.1 mm 1 mps 736 mmHg 72%
    19:00 +28°C° 0.1 mm 1 mps 736 mmHg 78%
    20:00 +27°C° 0 mm 1 mps 737 mmHg 80%
    21:00 +26°C° 0 mm 1 mps 737 mmHg 83%
    22:00 +26°C° 0 mm 1 mps 737 mmHg 85%
    23:00 +25°C° 0 mm 1 mps 737 mmHg 86%

    17 December, Sunday

    Time Temperature Precipitation Wind Pressure Humidity
    00:00 +23°C° 0 mm 0 mps 737 mmHg 87%
    01:00 +22°C° 0 mm 0 mps 737 mmHg 88%
    02:00 +22°C° 0 mm 0 mps 736 mmHg 88%
    03:00 +24°C° 0 mm 1 mps 736 mmHg 88%
    04:00 +24°C° 0 mm 1 mps 736 mmHg 87%
    05:00 +24°C° 0 mm 1 mps 737 mmHg 85%
    06:00 +25°C° 0 mm 1 mps 737 mmHg 82%
    07:00 +25°C° 0 mm 1 mps 738 mmHg 79%
    08:00 +27°C° 0 mm 2 mps 738 mmHg 70%
    09:00 +30°C° 0 mm 2 mps 739 mmHg 60%
    10:00 +33°C° 0 mm 3 mps 739 mmHg 51%
    11:00 +34°C° 0 mm 3 mps 738 mmHg 48%
    12:00 +35°C° 0 mm 2 mps 737 mmHg 45%
    13:00 +36°C° 0 mm 2 mps 737 mmHg 42%
    14:00 +35°C° 0 mm 2 mps 736 mmHg 44%
    15:00 +35°C° 0 mm 2 mps 735 mmHg 46%
    16:00 +35°C° 0 mm 2 mps 735 mmHg 47%
    17:00 +32°C° 0 mm 1 mps 735 mmHg 55%
    18:00 +30°C° 0 mm 1 mps 736 mmHg 62%
    19:00 +28°C° 0 mm 1 mps 736 mmHg 69%
    20:00 +27°C° 0 mm 1 mps 737 mmHg 71%
    21:00 +27°C° 0 mm 1 mps 737 mmHg 72%
    22:00 +26°C° 0 mm 1 mps 738 mmHg 74%
    23:00 +26°C° 0 mm 1 mps 737 mmHg 77%

    18 December, Monday

    Time Temperature Precipitation Wind Pressure Humidity
    00:00 +25°C° 0 mm 1 mps 737 mmHg 79%
    01:00 +25°C° 0 mm 1 mps 736 mmHg 82%
    02:00 +22°C° 0 mm 0 mps 736 mmHg 84%
    03:00 +22°C° 0 mm 0 mps 736 mmHg 86%
    04:00 +22°C° 0 mm 0 mps 736 mmHg 88%
    05:00 +24°C° 0 mm 1 mps 737 mmHg 86%
    06:00 +25°C° 0 mm 1 mps 738 mmHg 84%
    07:00 +26°C° 0 mm 1 mps 738 mmHg 83%
    08:00 +28°C° 0 mm 2 mps 739 mmHg 72%
    09:00 +30°C° 0 mm 2 mps 739 mmHg 62%
    10:00 +34°C° 0 mm 2 mps 739 mmHg 52%
    11:00 +35°C° 0 mm 2 mps 738 mmHg 48%
    12:00 +36°C° 0 mm 2 mps 737 mmHg 45%
    13:00 +36°C° 0 mm 2 mps 736 mmHg 42%
    14:00 +36°C° 0 mm 2 mps 736 mmHg 45%
    15:00 +34°C° 0 mm 1 mps 735 mmHg 49%
    16:00 +33°C° 0 mm 1 mps 735 mmHg 52%
    17:00 +32°C° 0 mm 1 mps 736 mmHg 58%
    18:00 +30°C° 0 mm 1 mps 736 mmHg 63%
    19:00 +26°C° 0 mm 0 mps 737 mmHg 69%
    20:00 +28°C° 0.4 mm 1 mps 737 mmHg 74%
    21:00 +27°C° 0.4 mm 1 mps 738 mmHg 79%
    22:00 +26°C° 0.4 mm 1 mps 738 mmHg 84%
    23:00 +24°C° 0.4 mm 0 mps 738 mmHg 86%

    19 December, Tuesday

    Time Temperature Precipitation Wind Pressure Humidity
    00:00 +23°C° 0.4 mm 0 mps 737 mmHg 89%
    01:00 +23°C° 0.4 mm 0 mps 737 mmHg 91%
    02:00 +23°C° 0.2 mm 0 mps 737 mmHg 93%
    03:00 +22°C° 0.2 mm 0 mps 737 mmHg 94%
    04:00 +22°C° 0.2 mm 0 mps 737 mmHg 95%
    05:00 +23°C° 0.1 mm 0 mps 737 mmHg 94%
    06:00 +23°C° 0.1 mm 0 mps 738 mmHg 93%
    07:00 +23°C° 0.1 mm 0 mps 738 mmHg 92%
    08:00 +25°C° 0.6 mm 0 mps 739 mmHg 88%
    09:00 +28°C° 0.6 mm 1 mps 739 mmHg 84%
    10:00 +29°C° 0.6 mm 1 mps 739 mmHg 80%
    11:00 +30°C° 1 mm 1 mps 738 mmHg 79%
    12:00 +30°C° 1 mm 1 mps 737 mmHg 78%
    13:00 +31°C° 1 mm 1 mps 737 mmHg 78%
    14:00 +30°C° 1.1 mm 1 mps 736 mmHg 81%
    15:00 +29°C° 1.1 mm 1 mps 736 mmHg 84%
    16:00 +29°C° 1.1 mm 1 mps 735 mmHg 87%
    17:00 +28°C° 0.5 mm 1 mps 736 mmHg 90%
    18:00 +26°C° 0.5 mm 1 mps 736 mmHg 93%
    19:00 +25°C° 0.5 mm 1 mps 737 mmHg 96%
    20:00 +25°C° 0 mm 1 mps 737 mmHg 96%
    21:00 +25°C° 0 mm 1 mps 738 mmHg 97%
    22:00 +22°C° 0 mm 0 mps 738 mmHg 97%
    23:00 +22°C° 0.4 mm 0 mps 738 mmHg 98%
    Show more